TimeBST,TemperatureF,Dew PointF,Humidity,Sea Level PressureIn,VisibilityMPH,Wind Direction,Wind SpeedMPH,Gust SpeedMPH,PrecipitationIn,Events,Conditions,WindDirDegrees,DateUTC
12:20 AM,64.4,59.0,83,29.98,5.0,East,8.1,-,N/A,,Unknown,90,2013-06-19 23:20:00
12:50 AM,65,59,75,29.97,3,ENE,5.8,,,,Light Haze,60,2013-06-19 23:50:00
12:50 AM,64.4,59.0,83,29.98,4.3,ENE,5.8,-,N/A,,Unknown,70,2013-06-19 23:50:00
1:20 AM,64.4,59.0,83,29.95,4.3,ENE,9.2,-,N/A,,Partly Cloudy,70,2013-06-20 00:20:00
1:50 AM,64.4,59.0,83,29.95,3.7,ENE,8.1,-,N/A,,Mostly Cloudy,70,2013-06-20 00:50:00
2:20 AM,64.4,59.0,83,29.95,3.7,ENE,9.2,-,N/A,,Mostly Cloudy,60,2013-06-20 01:20:00
2:50 AM,64.4,59.0,83,29.95,3.1,ENE,5.8,-,N/A,,Overcast,60,2013-06-20 01:50:00
3:20 AM,64.4,57.2,77,29.95,3.1,NE,6.9,-,N/A,,Scattered Clouds,50,2013-06-20 02:20:00
3:50 AM,63,57,76,29.95,3,NE,6.9,,,,Light Haze,50,2013-06-20 02:50:00
3:50 AM,62.6,57.2,82,29.95,3.1,ENE,8.1,-,N/A,,Unknown,60,2013-06-20 02:50:00
4:20 AM,62.6,57.2,82,29.95,3.7,ENE,6.9,-,N/A,,Unknown,60,2013-06-20 03:20:00
4:50 AM,62.6,57.2,82,29.92,3.1,ENE,8.1,-,N/A,,Haze,70,2013-06-20 03:50:00
5:20 AM,62.6,57.2,82,29.92,-9999.0,ENE,6.9,-,N/A,,Haze,60,2013-06-20 04:20:00
5:50 AM,62.6,59.0,88,29.95,-9999.0,East,6.9,-,N/A,,Haze,80,2013-06-20 04:50:00
6:20 AM,62.6,57.2,82,29.95,-9999.0,ENE,6.9,-,N/A,,Haze,70,2013-06-20 05:20:00
6:50 AM,62,57,79,29.94,3,NE,6.9,,,,Light Haze,50,2013-06-20 05:50:00
6:50 AM,62.6,57.2,82,29.92,2.8,ENE,6.9,-,N/A,,Haze,60,2013-06-20 05:50:00
7:20 AM,62.6,57.2,82,29.92,3.1,ENE,6.9,-,N/A,,Haze,60,2013-06-20 06:20:00
7:50 AM,64.4,57.2,77,29.92,3.1,ENE,6.9,-,N/A,,Haze,60,2013-06-20 06:50:00
8:20 AM,64.4,57.2,77,29.92,3.7,ENE,6.9,-,N/A,,Scattered Clouds,60,2013-06-20 07:20:00
8:50 AM,64.4,57.2,77,29.92,3.7,East,6.9,-,N/A,,Scattered Clouds,80,2013-06-20 07:50:00
9:20 AM,66.2,57.2,73,29.92,4.3,ENE,6.9,-,N/A,,Partly Cloudy,70,2013-06-20 08:20:00
9:50 AM,67,57,62,29.91,6,East,9.2,,,,Light Haze,90,2013-06-20 08:50:00
9:50 AM,66.2,57.2,73,29.92,5.0,East,9.2,-,N/A,,Unknown,90,2013-06-20 08:50:00
10:20 AM,66.2,57.2,73,29.92,5.0,East,9.2,-,N/A,,Partly Cloudy,100,2013-06-20 09:20:00
10:50 AM,69.8,59.0,68,29.92,5.0,East,8.1,-,N/A,,Mostly Cloudy,80,2013-06-20 09:50:00
11:20 AM,68.0,59.0,73,29.89,5.0,ESE,9.2,-,N/A,,Mostly Cloudy,110,2013-06-20 10:20:00
11:50 AM,68.0,59.0,73,29.89,4.3,ESE,6.9,-,N/A,,Mostly Cloudy,120,2013-06-20 10:50:00
12:20 PM,68.0,59.0,73,29.89,4.3,ESE,6.9,-,N/A,,Mostly Cloudy,120,2013-06-20 11:20:00
12:50 PM,67,59,67,29.89,5,SE,6.9,,,,Light Haze,140,2013-06-20 11:50:00
12:50 PM,68.0,59.0,73,29.89,4.3,SSE,5.8,-,N/A,,Mostly Cloudy,160,2013-06-20 11:50:00
1:20 PM,68.0,59.0,73,29.86,4.3,Variable,3.5,-,N/A,,Mostly Cloudy,0,2013-06-20 12:20:00
1:50 PM,68.0,60.8,78,29.86,4.3,Variable,3.5,-,N/A,,Mostly Cloudy,0,2013-06-20 12:50:00
2:20 PM,68.0,60.8,78,29.86,4.3,SSE,5.8,-,N/A,,Mostly Cloudy,160,2013-06-20 13:20:00
2:50 PM,68.0,60.8,78,29.83,4.3,Variable,3.5,-,N/A,,Mostly Cloudy,0,2013-06-20 13:50:00
3:20 PM,68.0,60.8,78,29.83,3.7,South,6.9,-,N/A,,Mostly Cloudy,180,2013-06-20 14:20:00
3:50 PM,68,61,71,29.84,4,South,6.9,,,,Light Haze,190,2013-06-20 14:50:00
3:50 PM,68.0,60.8,78,29.83,3.1,SSW,8.1,-,N/A,,Haze,200,2013-06-20 14:50:00
4:20 PM,68.0,60.8,78,29.83,3.1,SSW,8.1,-,N/A,,Haze,200,2013-06-20 15:20:00
4:50 PM,68.0,62.6,83,29.83,3.1,SW,8.1,-,N/A,,Haze,220,2013-06-20 15:50:00
5:20 PM,68.0,62.6,83,29.83,3.7,SSW,6.9,-,N/A,,Mostly Cloudy,200,2013-06-20 16:20:00
5:50 PM,69.8,60.8,73,29.83,4.3,SSW,6.9,-,N/A,,Mostly Cloudy,200,2013-06-20 16:50:00
6:20 PM,69.8,59.0,68,29.83,6.2,SSW,9.2,-,N/A,,Scattered Clouds,210,2013-06-20 17:20:00
6:50 PM,68,58,61,29.83,12,SW,12.7,,,,Mostly Cloudy,220,2013-06-20 17:50:00
6:50 PM,68.0,59.0,73,29.83,6.2,SW,12.7,-,N/A,,Scattered Clouds,220,2013-06-20 17:50:00
7:20 PM,68.0,57.2,68,29.83,6.2,SW,12.7,-,N/A,,Partly Cloudy,230,2013-06-20 18:20:00
7:50 PM,66.2,55.4,68,29.83,-9999.0,WSW,12.7,24.2,N/A,,Clear,240,2013-06-20 18:50:00
8:20 PM,66.2,55.4,68,29.83,-9999.0,WSW,11.5,-,N/A,,Clear,250,2013-06-20 19:20:00
8:50 PM,66.2,57.2,73,29.83,-9999.0,WSW,10.4,-,N/A,,Clear,250,2013-06-20 19:50:00
9:20 PM,64.4,57.2,77,29.83,-9999.0,West,9.2,-,N/A,,Clear,260,2013-06-20 20:20:00
9:50 PM,64,56,68,29.83,12,SW,4.6,,,,Mostly Cloudy,230,2013-06-20 20:50:00
9:50 PM,64.4,57.2,77,29.83,-9999.0,SW,6.9,-,N/A,,Clear,230,2013-06-20 20:50:00
10:20 PM,64.4,57.2,77,29.83,-9999.0,SW,6.9,-,N/A,,Clear,230,2013-06-20 21:20:00
10:50 PM,62.6,57.2,82,29.80,6.2,SW,6.9,-,N/A,,Partly Cloudy,230,2013-06-20 21:50:00
11:20 PM,62.6,57.2,82,29.80,-9999.0,WSW,8.1,-,N/A,,Clear,240,2013-06-20 22:20:00
11:50 PM,60.8,55.4,82,29.80,-9999.0,WSW,8.1,-,N/A,,Clear,240,2013-06-20 22:50:00